Time,TemperatureF,DewpointF,PressureIn,WindDirection,WindDirectionDegrees,WindSpeedMPH,WindSpeedGustMPH,Humidity,HourlyPrecipIn,Conditions,Clouds,dailyrainin,SoftwareType,DateUTC
2014-01-06 00:01:00,8.6,5.5,29.10,West,281,0.0,4.0,87,0.00,,,-99.99,meteobridge,2014-01-06 05:01:00,
2014-01-06 00:02:00,8.6,5.5,29.10,WNW,302,2.0,2.9,87,0.00,,,0.00,meteobridge,2014-01-06 05:02:00,
2014-01-06 00:07:00,8.2,5.0,29.10,West,274,2.9,4.0,86,0.00,,,0.00,meteobridge,2014-01-06 05:07:00,
2014-01-06 00:12:00,7.9,4.6,29.11,West,278,0.9,14.1,86,0.00,,,0.00,meteobridge,2014-01-06 05:12:00,
2014-01-06 00:17:00,7.3,3.7,29.11,West,278,2.0,4.9,85,0.00,,,0.00,meteobridge,2014-01-06 05:17:00,
2014-01-06 00:22:00,7.0,3.4,29.12,West,280,2.9,11.0,85,0.00,,,0.00,meteobridge,2014-01-06 05:22:00,
2014-01-06 00:27:00,6.6,3.0,29.12,WNW,284,2.9,12.1,85,0.00,,,0.00,meteobridge,2014-01-06 05:27:00,
2014-01-06 00:32:00,6.4,3.2,29.12,WSW,254,2.0,2.9,86,0.00,,,0.00,meteobridge,2014-01-06 05:32:00,
2014-01-06 00:37:00,6.3,3.0,29.13,WSW,253,6.9,8.1,86,0.00,,,0.00,meteobridge,2014-01-06 05:37:00,
2014-01-06 00:42:00,6.1,2.5,29.13,WNW,297,0.9,6.0,85,0.00,,,0.00,meteobridge,2014-01-06 05:42:00,
2014-01-06 00:47:00,5.7,2.5,29.13,WSW,239,2.0,6.0,86,0.00,,,0.00,meteobridge,2014-01-06 05:47:00,
2014-01-06 00:53:00,5.5,1.9,29.14,WSW,240,6.9,13.0,85,0.00,,,0.00,meteobridge,2014-01-06 05:53:00,
2014-01-06 00:58:00,5.4,1.8,29.15,West,264,2.9,4.0,85,0.00,,,0.00,meteobridge,2014-01-06 05:58:00,
2014-01-06 01:03:00,5.0,1.4,29.15,WSW,245,4.0,16.1,85,0.00,,,0.00,meteobridge,2014-01-06 06:03:00,
2014-01-06 01:08:00,4.6,0.9,29.15,WNW,290,0.9,13.0,84,0.00,,,0.00,meteobridge,2014-01-06 06:08:00,
2014-01-06 01:13:00,4.6,1.2,29.16,WNW,294,0.0,6.9,85,0.00,,,0.00,meteobridge,2014-01-06 06:13:00,
2014-01-06 01:18:00,4.1,0.1,29.16,WNW,288,0.0,8.9,83,0.00,,,0.00,meteobridge,2014-01-06 06:18:00,
2014-01-06 01:23:00,3.6,-0.4,29.17,SW,226,2.0,8.1,83,0.00,,,0.00,meteobridge,2014-01-06 06:23:00,
2014-01-06 01:28:00,3.4,-0.4,29.18,WSW,246,2.0,4.0,84,0.00,,,0.00,meteobridge,2014-01-06 06:28:00,
2014-01-06 01:33:00,3.0,-0.9,29.18,West,262,2.0,13.0,83,0.00,,,0.00,meteobridge,2014-01-06 06:33:00,
2014-01-06 01:38:00,2.8,-1.1,29.19,West,281,0.9,2.9,83,0.00,,,0.00,meteobridge,2014-01-06 06:38:00,
2014-01-06 01:43:00,2.5,-1.5,29.19,NW,313,0.0,4.0,83,0.00,,,0.00,meteobridge,2014-01-06 06:43:00,
2014-01-06 01:48:00,2.1,-1.8,29.20,WSW,255,0.0,8.1,83,0.00,,,0.00,meteobridge,2014-01-06 06:48:00,
2014-01-06 01:54:00,2.1,-1.8,29.19,SW,229,2.0,6.9,83,0.00,,,0.00,meteobridge,2014-01-06 06:54:00,
2014-01-06 01:59:00,1.9,-2.0,29.20,WSW,243,6.0,6.9,83,0.00,,,0.00,meteobridge,2014-01-06 06:59:00,
2014-01-06 02:04:00,1.8,-2.2,29.21,West,274,0.0,4.9,83,0.00,,,0.00,meteobridge,2014-01-06 07:04:00,
2014-01-06 02:09:00,1.6,-2.4,29.21,WSW,258,0.9,14.1,83,0.00,,,0.00,meteobridge,2014-01-06 07:09:00,
2014-01-06 02:14:00,1.0,-3.5,29.21,West,273,0.9,4.9,81,0.00,,,0.00,meteobridge,2014-01-06 07:14:00,
2014-01-06 02:19:00,0.9,-3.3,29.22,WSW,253,11.0,11.0,82,0.00,,,0.00,meteobridge,2014-01-06 07:19:00,
2014-01-06 02:24:00,0.7,-3.8,29.22,West,274,0.0,4.9,81,0.00,,,0.00,meteobridge,2014-01-06 07:24:00,
2014-01-06 02:29:00,0.7,-3.5,29.23,WSW,256,0.0,4.0,82,0.00,,,0.00,meteobridge,2014-01-06 07:29:00,
2014-01-06 02:34:00,0.5,-3.6,29.23,NNE,20,2.0,6.0,82,0.00,,,0.00,meteobridge,2014-01-06 07:34:00,
2014-01-06 02:39:00,0.3,-3.8,29.24,WSW,246,10.1,10.1,82,0.00,,,0.00,meteobridge,2014-01-06 07:39:00,
2014-01-06 02:44:00,0.3,-4.2,29.25,SW,236,8.1,8.1,81,0.00,,,0.00,meteobridge,2014-01-06 07:44:00,
2014-01-06 02:49:00,0.1,-4.0,29.25,WSW,252,0.9,10.1,82,0.00,,,0.00,meteobridge,2014-01-06 07:49:00,
2014-01-06 02:54:00,0.1,-4.0,29.26,West,271,0.9,13.0,82,0.00,,,0.00,meteobridge,2014-01-06 07:54:00,
2014-01-06 02:59:00,-0.2,-5.1,29.26,WNW,302,2.0,11.0,79,0.00,,,0.00,meteobridge,2014-01-06 07:59:00,
2014-01-06 03:04:00,-0.8,-5.4,29.27,SW,217,4.9,4.9,80,0.00,,,0.00,meteobridge,2014-01-06 08:04:00,
2014-01-06 03:09:00,-0.8,-5.3,29.27,West,259,0.0,4.9,81,0.00,,,0.00,meteobridge,2014-01-06 08:09:00,
2014-01-06 03:14:00,-0.9,-4.9,29.27,West,262,0.0,4.0,83,0.00,,,0.00,meteobridge,2014-01-06 08:14:00,
2014-01-06 03:19:00,-0.9,-5.1,29.27,WSW,240,0.0,2.9,82,0.00,,,0.00,meteobridge,2014-01-06 08:19:00,
2014-01-06 03:24:00,-1.1,-5.3,29.27,WNW,287,2.9,6.0,82,0.00,,,0.00,meteobridge,2014-01-06 08:24:00,
2014-01-06 03:29:00,-1.1,-5.3,29.28,SSW,213,8.1,10.1,82,0.00,,,0.00,meteobridge,2014-01-06 08:29:00,
2014-01-06 03:34:00,-1.5,-5.8,29.27,WSW,242,2.0,4.9,81,0.00,,,0.00,meteobridge,2014-01-06 08:34:00,
2014-01-06 03:39:00,-2.0,-6.9,29.28,West,259,0.9,13.0,79,0.00,,,0.00,meteobridge,2014-01-06 08:39:00,
2014-01-06 03:44:00,-2.4,-7.2,29.28,SW,232,0.9,2.9,79,0.00,,,0.00,meteobridge,2014-01-06 08:44:00,
2014-01-06 03:50:00,-2.6,-7.2,29.28,North,355,2.0,16.1,80,0.00,,,0.00,meteobridge,2014-01-06 08:50:00,
2014-01-06 03:55:00,-2.7,-7.1,29.28,West,266,0.0,4.0,81,0.00,,,0.00,meteobridge,2014-01-06 08:55:00,
2014-01-06 04:00:00,-2.9,-7.6,29.28,West,266,0.0,8.9,80,0.00,,,0.00,meteobridge,2014-01-06 09:00:00,
2014-01-06 04:05:00,-3.3,-8.1,29.29,WNW,285,0.9,12.1,79,0.00,,,0.00,meteobridge,2014-01-06 09:05:00,
2014-01-06 04:10:00,-3.5,-8.1,29.29,West,263,0.9,8.1,80,0.00,,,0.00,meteobridge,2014-01-06 09:10:00,
2014-01-06 04:15:00,-3.6,-8.5,29.29,West,263,2.0,4.0,79,0.00,,,0.00,meteobridge,2014-01-06 09:15:00,
2014-01-06 04:20:00,-4.0,-8.9,29.30,WSW,249,6.0,8.9,79,0.00,,,0.00,meteobridge,2014-01-06 09:20:00,
2014-01-06 04:25:00,-4.2,-9.0,29.30,West,281,0.9,6.0,79,0.00,,,0.00,meteobridge,2014-01-06 09:25:00,
2014-01-06 04:30:00,-4.5,-9.6,29.31,WNW,291,4.0,6.0,78,0.00,,,0.00,meteobridge,2014-01-06 09:30:00,
2014-01-06 04:35:00,-4.7,-9.8,29.31,SW,232,0.9,11.0,78,0.00,,,0.00,meteobridge,2014-01-06 09:35:00,
2014-01-06 04:40:00,-5.1,-10.1,29.31,WNW,284,0.0,15.0,78,0.00,,,0.00,meteobridge,2014-01-06 09:40:00,
2014-01-06 04:45:00,-5.3,-10.3,29.31,WSW,257,0.9,8.1,78,0.00,,,0.00,meteobridge,2014-01-06 09:45:00,
2014-01-06 04:50:00,-5.6,-10.7,29.31,NNE,19,0.9,8.1,78,0.00,,,0.00,meteobridge,2014-01-06 09:50:00,
2014-01-06 04:55:00,-5.6,-10.5,29.32,West,259,0.9,4.9,79,0.00,,,0.00,meteobridge,2014-01-06 09:55:00,
2014-01-06 05:00:00,-5.8,-10.7,29.32,NW,312,4.0,4.0,79,0.00,,,0.00,meteobridge,2014-01-06 10:00:00,
2014-01-06 05:05:00,-6.0,-10.8,29.33,SW,215,4.0,6.9,79,0.00,,,0.00,meteobridge,2014-01-06 10:05:00,
2014-01-06 05:10:00,-6.0,-10.8,29.32,West,274,0.9,4.9,79,0.00,,,0.00,meteobridge,2014-01-06 10:10:00,
2014-01-06 05:16:00,-6.0,-10.5,29.33,SSW,210,0.0,4.0,80,0.00,,,0.00,meteobridge,2014-01-06 10:16:00,
2014-01-06 05:21:00,-6.0,-10.3,29.33,West,260,4.0,8.1,81,0.00,,,0.00,meteobridge,2014-01-06 10:21:00,
2014-01-06 05:26:00,-6.0,-10.3,29.34,SW,221,0.0,10.1,81,0.00,,,0.00,meteobridge,2014-01-06 10:26:00,
2014-01-06 05:31:00,-6.2,-11.0,29.34,West,259,2.9,12.1,79,0.00,,,0.00,meteobridge,2014-01-06 10:31:00,
2014-01-06 05:36:00,-6.2,-11.0,29.34,West,281,0.9,14.1,79,0.00,,,0.00,meteobridge,2014-01-06 10:36:00,
2014-01-06 05:41:00,-6.3,-11.2,29.34,West,268,0.9,6.0,79,0.00,,,0.00,meteobridge,2014-01-06 10:41:00,
2014-01-06 05:46:00,-6.3,-10.8,29.34,SW,228,0.9,4.0,80,0.00,,,0.00,meteobridge,2014-01-06 10:46:00,
2014-01-06 05:51:00,-6.3,-11.2,29.34,WNW,303,2.0,4.9,79,0.00,,,0.00,meteobridge,2014-01-06 10:51:00,
2014-01-06 05:56:00,-6.5,-11.0,29.34,SW,234,2.0,8.1,80,0.00,,,0.00,meteobridge,2014-01-06 10:56:00,
2014-01-06 06:01:00,-6.5,-10.8,29.34,West,264,0.0,4.0,81,0.00,,,0.00,meteobridge,2014-01-06 11:01:00,
2014-01-06 06:06:00,-6.9,-11.4,29.34,WSW,252,2.0,4.9,80,0.00,,,0.00,meteobridge,2014-01-06 11:06:00,
2014-01-06 06:11:00,-7.1,-11.6,29.35,West,260,0.9,11.0,80,0.00,,,0.00,meteobridge,2014-01-06 11:11:00,
2014-01-06 06:16:00,-7.4,-12.5,29.35,SSW,208,6.0,11.0,78,0.00,,,0.00,meteobridge,2014-01-06 11:16:00,
2014-01-06 06:21:00,-7.8,-12.8,29.36,WNW,293,0.9,8.1,78,0.00,,,0.00,meteobridge,2014-01-06 11:21:00,
2014-01-06 06:26:00,-8.0,-13.0,29.36,West,267,0.0,4.0,78,0.00,,,0.00,meteobridge,2014-01-06 11:26:00,
2014-01-06 06:31:00,-8.1,-13.2,29.36,SW,228,2.9,6.0,78,0.00,,,0.00,meteobridge,2014-01-06 11:31:00,
2014-01-06 06:36:00,-8.1,-13.2,29.36,WSW,250,0.0,0.9,78,0.00,,,0.00,meteobridge,2014-01-06 11:36:00,
2014-01-06 06:41:00,-8.3,-13.4,29.36,SW,231,4.0,4.9,78,0.00,,,0.00,meteobridge,2014-01-06 11:41:00,
2014-01-06 06:46:00,-8.3,-13.4,29.37,WSW,257,2.9,2.9,78,0.00,,,0.00,meteobridge,2014-01-06 11:46:00,
2014-01-06 06:51:00,-8.7,-13.7,29.37,West,264,0.0,6.9,78,0.00,,,0.00,meteobridge,2014-01-06 11:51:00,
2014-01-06 06:56:00,-8.7,-13.7,29.37,West,276,0.9,10.1,78,0.00,,,0.00,meteobridge,2014-01-06 11:56:00,
2014-01-06 07:01:00,-8.9,-14.1,29.37,SW,226,4.0,6.0,77,0.00,,,0.00,meteobridge,2014-01-06 12:01:00,
2014-01-06 07:06:00,-9.0,-14.6,29.38,SSW,204,2.0,8.1,76,0.00,,,0.00,meteobridge,2014-01-06 12:06:00,
2014-01-06 07:11:00,-9.2,-14.8,29.38,SW,234,0.0,8.9,76,0.00,,,0.00,meteobridge,2014-01-06 12:11:00,
2014-01-06 07:16:00,-9.6,-15.0,29.38,SW,235,8.1,15.0,76,0.00,,,0.00,meteobridge,2014-01-06 12:16:00,
2014-01-06 07:21:00,-9.8,-15.2,29.39,NW,308,2.9,2.9,76,0.00,,,0.00,meteobridge,2014-01-06 12:21:00,
2014-01-06 07:26:00,-9.8,-15.0,29.39,SW,219,0.0,8.9,77,0.00,,,0.00,meteobridge,2014-01-06 12:26:00,
2014-01-06 07:31:00,-9.9,-15.0,29.39,West,264,0.9,4.0,78,0.00,,,0.00,meteobridge,2014-01-06 12:31:00,
2014-01-06 07:37:00,-9.9,-14.6,29.39,WSW,256,0.0,2.9,79,0.00,,,0.00,meteobridge,2014-01-06 12:37:00,
2014-01-06 07:42:00,-9.9,-14.4,29.39,West,266,0.0,11.0,80,0.00,,,0.00,meteobridge,2014-01-06 12:42:00,
2014-01-06 07:47:00,-10.1,-15.2,29.40,West,271,2.0,4.9,78,0.00,,,0.00,meteobridge,2014-01-06 12:47:00,
2014-01-06 07:52:00,-10.5,-15.7,29.40,WSW,249,6.9,10.1,77,0.00,,,0.00,meteobridge,2014-01-06 12:52:00,
2014-01-06 07:57:00,-10.7,-15.9,29.40,WSW,253,0.0,4.0,77,0.00,,,0.00,meteobridge,2014-01-06 12:57:00,
2014-01-06 08:02:00,-10.8,-16.1,29.41,WSW,240,6.9,8.1,77,0.00,,,0.00,meteobridge,2014-01-06 13:02:00,
2014-01-06 08:07:00,-11.0,-16.2,29.41,West,276,0.0,2.9,77,0.00,,,0.00,meteobridge,2014-01-06 13:07:00,
2014-01-06 08:12:00,-11.4,-16.6,29.41,WSW,258,0.9,2.9,77,0.00,,,0.00,meteobridge,2014-01-06 13:12:00,
2014-01-06 08:17:00,-11.6,-16.8,29.41,SSW,205,2.0,6.9,77,0.00,,,0.00,meteobridge,2014-01-06 13:17:00,
2014-01-06 08:22:00,-11.6,-16.8,29.41,West,266,0.9,8.9,77,0.00,,,0.00,meteobridge,2014-01-06 13:22:00,
2014-01-06 08:27:00,-11.7,-17.0,29.42,WSW,239,0.0,8.9,77,0.00,,,0.00,meteobridge,2014-01-06 13:27:00,
2014-01-06 08:32:00,-11.7,-17.0,29.42,WSW,257,2.9,4.0,77,0.00,,,0.00,meteobridge,2014-01-06 13:32:00,
2014-01-06 08:38:00,-11.9,-17.1,29.42,WSW,253,2.0,6.0,77,0.00,,,0.00,meteobridge,2014-01-06 13:38:00,
2014-01-06 08:43:00,-11.9,-17.1,29.42,West,266,0.0,12.1,77,0.00,,,0.00,meteobridge,2014-01-06 13:43:00,
2014-01-06 08:48:00,-11.9,-17.3,29.42,West,281,2.0,11.0,76,0.00,,,0.00,meteobridge,2014-01-06 13:48:00,
2014-01-06 08:53:00,-11.9,-17.3,29.43,WNW,302,0.9,4.9,76,0.00,,,0.00,meteobridge,2014-01-06 13:53:00,
2014-01-06 08:58:00,-11.9,-17.3,29.43,West,263,0.0,2.9,76,0.00,,,0.00,meteobridge,2014-01-06 13:58:00,
2014-01-06 09:03:00,-11.7,-17.1,29.43,West,277,0.0,6.0,76,0.00,,,0.00,meteobridge,2014-01-06 14:03:00,
2014-01-06 09:08:00,-11.7,-17.1,29.43,West,263,2.0,4.0,76,0.00,,,0.00,meteobridge,2014-01-06 14:08:00,
2014-01-06 09:13:00,-11.7,-17.0,29.43,West,262,0.0,4.0,77,0.00,,,0.00,meteobridge,2014-01-06 14:13:00,
2014-01-06 09:18:00,-11.6,-16.8,29.43,WSW,252,2.0,2.0,77,0.00,,,0.00,meteobridge,2014-01-06 14:18:00,
2014-01-06 09:23:00,-11.6,-16.8,29.44,West,276,0.9,11.0,77,0.00,,,0.00,meteobridge,2014-01-06 14:23:00,
2014-01-06 09:28:00,-11.4,-16.6,29.44,SSW,198,0.9,4.0,77,0.00,,,0.00,meteobridge,2014-01-06 14:28:00,
2014-01-06 09:33:00,-11.4,-16.6,29.44,SW,234,2.9,2.9,77,0.00,,,0.00,meteobridge,2014-01-06 14:33:00,
2014-01-06 09:38:00,-11.6,-16.8,29.45,WSW,248,4.9,6.9,77,0.00,,,0.00,meteobridge,2014-01-06 14:38:00,
2014-01-06 09:43:00,-11.4,-16.6,29.45,West,266,0.0,2.9,77,0.00,,,0.00,meteobridge,2014-01-06 14:43:00,
2014-01-06 09:48:00,-11.4,-16.6,29.45,West,260,0.0,10.1,77,0.00,,,0.00,meteobridge,2014-01-06 14:48:00,
2014-01-06 09:53:00,-11.0,-16.2,29.45,SW,226,0.0,0.9,77,0.00,,,0.00,meteobridge,2014-01-06 14:53:00,
2014-01-06 09:58:00,-11.0,-16.4,29.45,WNW,302,0.0,4.9,76,0.00,,,0.00,meteobridge,2014-01-06 14:58:00,
2014-01-06 10:03:00,-11.0,-16.2,29.46,West,271,2.0,8.1,77,0.00,,,0.00,meteobridge,2014-01-06 15:03:00,
2014-01-06 10:08:00,-11.0,-16.4,29.46,SSW,213,0.9,4.0,76,0.00,,,0.00,meteobridge,2014-01-06 15:08:00,
2014-01-06 10:13:00,-11.0,-16.4,29.46,South,180,0.0,2.9,76,0.00,,,0.00,meteobridge,2014-01-06 15:13:00,
2014-01-06 10:18:00,-11.2,-17.0,29.46,WSW,249,6.9,6.9,75,0.00,,,0.00,meteobridge,2014-01-06 15:18:00,
2014-01-06 10:23:00,-11.0,-16.8,29.46,West,266,0.0,4.0,75,0.00,,,0.00,meteobridge,2014-01-06 15:23:00,
2014-01-06 10:29:00,-11.0,-16.8,29.46,West,273,0.0,4.0,75,0.00,,,0.00,meteobridge,2014-01-06 15:29:00,
2014-01-06 10:34:00,-11.0,-16.8,29.46,SSW,207,4.9,8.1,75,0.00,,,0.00,meteobridge,2014-01-06 15:34:00,
2014-01-06 10:39:00,-10.8,-16.6,29.47,WSW,255,2.9,6.9,75,0.00,,,0.00,meteobridge,2014-01-06 15:39:00,
2014-01-06 10:44:00,-10.8,-16.6,29.47,West,270,0.9,2.9,75,0.00,,,0.00,meteobridge,2014-01-06 15:44:00,
2014-01-06 10:49:00,-10.7,-16.4,29.47,NW,311,0.0,6.9,75,0.00,,,0.00,meteobridge,2014-01-06 15:49:00,
2014-01-06 10:54:00,-10.7,-16.6,29.47,SW,225,4.0,4.0,74,0.00,,,0.00,meteobridge,2014-01-06 15:54:00,
2014-01-06 10:59:00,-10.7,-16.6,29.47,WNW,288,0.9,6.0,74,0.00,,,0.00,meteobridge,2014-01-06 15:59:00,
2014-01-06 11:04:00,-10.7,-16.6,29.46,West,259,4.9,10.1,74,0.00,,,0.00,meteobridge,2014-01-06 16:04:00,
2014-01-06 11:09:00,-10.7,-17.0,29.46,West,273,0.0,6.9,73,0.00,,,0.00,meteobridge,2014-01-06 16:09:00,
2014-01-06 11:14:00,-10.5,-16.4,29.46,West,268,0.0,8.9,74,0.00,,,0.00,meteobridge,2014-01-06 16:14:00,
2014-01-06 11:19:00,-10.5,-16.4,29.47,WSW,252,0.0,6.9,74,0.00,,,0.00,meteobridge,2014-01-06 16:19:00,
2014-01-06 11:24:00,-10.5,-16.4,29.46,WSW,253,2.0,4.0,74,0.00,,,0.00,meteobridge,2014-01-06 16:24:00,
2014-01-06 11:30:00,-10.5,-16.4,29.46,SSW,207,0.0,6.9,74,0.00,,,0.00,meteobridge,2014-01-06 16:30:00,
2014-01-06 11:35:00,-10.5,-16.8,29.46,WSW,257,0.9,4.0,73,0.00,,,0.00,meteobridge,2014-01-06 16:35:00,
2014-01-06 11:40:00,-10.3,-16.2,29.45,SW,217,0.0,2.9,74,0.00,,,0.00,meteobridge,2014-01-06 16:40:00,
2014-01-06 11:45:00,-10.1,-16.4,29.46,WSW,257,0.9,8.1,73,0.00,,,0.00,meteobridge,2014-01-06 16:45:00,
2014-01-06 11:50:00,-9.9,-15.9,29.45,West,271,2.0,2.0,74,0.00,,,0.00,meteobridge,2014-01-06 16:50:00,
2014-01-06 11:55:00,-9.8,-15.5,29.45,West,272,0.9,4.9,75,0.00,,,0.00,meteobridge,2014-01-06 16:55:00,
2014-01-06 12:00:00,-9.8,-16.1,29.44,SW,234,2.0,8.1,73,0.00,,,0.00,meteobridge,2014-01-06 17:00:00,
2014-01-06 12:05:00,-9.8,-16.2,29.44,SW,235,0.0,11.0,72,0.00,,,0.00,meteobridge,2014-01-06 17:05:00,
2014-01-06 12:10:00,-9.8,-16.1,29.44,West,263,0.9,8.9,73,0.00,,,0.00,meteobridge,2014-01-06 17:10:00,
2014-01-06 12:15:00,-9.4,-15.3,29.44,SW,219,2.9,8.1,74,0.00,,,0.00,meteobridge,2014-01-06 17:15:00,
2014-01-06 12:20:00,-9.0,-15.0,29.44,West,263,0.9,6.0,74,0.00,,,0.00,meteobridge,2014-01-06 17:20:00,
2014-01-06 12:25:00,-9.0,-15.3,29.44,WSW,244,2.9,2.9,73,0.00,,,0.00,meteobridge,2014-01-06 17:25:00,
2014-01-06 12:30:00,-9.0,-15.3,29.44,WSW,253,0.9,2.0,73,0.00,,,0.00,meteobridge,2014-01-06 17:30:00,
2014-01-06 12:35:00,-9.0,-15.3,29.44,WSW,253,0.0,12.1,73,0.00,,,0.00,meteobridge,2014-01-06 17:35:00,
2014-01-06 12:40:00,-9.0,-15.3,29.44,SW,226,6.9,11.0,73,0.00,,,0.00,meteobridge,2014-01-06 17:40:00,
2014-01-06 12:45:00,-9.0,-15.3,29.44,SW,214,2.0,2.0,73,0.00,,,0.00,meteobridge,2014-01-06 17:45:00,
2014-01-06 12:50:00,-8.9,-15.5,29.44,WSW,247,0.9,6.0,72,0.00,,,0.00,meteobridge,2014-01-06 17:50:00,
2014-01-06 12:55:00,-8.9,-15.5,29.44,WSW,255,2.0,8.1,72,0.00,,,0.00,meteobridge,2014-01-06 17:55:00,
2014-01-06 13:00:00,-9.2,-16.1,29.44,West,273,0.0,2.9,71,0.00,,,0.00,meteobridge,2014-01-06 18:00:00,
2014-01-06 13:05:00,-9.2,-15.5,29.44,WSW,256,0.9,6.9,73,0.00,,,0.00,meteobridge,2014-01-06 18:05:00,
2014-01-06 13:10:00,-9.0,-15.0,29.43,SSW,199,8.9,8.9,74,0.00,,,0.00,meteobridge,2014-01-06 18:10:00,
2014-01-06 13:15:00,-8.7,-14.8,29.43,SSW,194,0.9,6.0,74,0.00,,,0.00,meteobridge,2014-01-06 18:15:00,
2014-01-06 13:20:00,-8.7,-15.5,29.44,SSW,207,0.0,4.9,71,0.00,,,0.00,meteobridge,2014-01-06 18:20:00,
2014-01-06 13:26:00,-8.9,-15.5,29.44,West,266,0.9,2.0,72,0.00,,,0.00,meteobridge,2014-01-06 18:26:00,
2014-01-06 13:31:00,-8.7,-15.0,29.44,South,177,0.9,4.0,73,0.00,,,0.00,meteobridge,2014-01-06 18:31:00,
2014-01-06 13:36:00,-8.7,-14.8,29.44,West,279,2.0,6.9,74,0.00,,,0.00,meteobridge,2014-01-06 18:36:00,
2014-01-06 13:41:00,-8.9,-15.2,29.44,WNW,288,0.9,11.0,73,0.00,,,0.00,meteobridge,2014-01-06 18:41:00,
2014-01-06 13:46:00,-8.9,-15.0,29.44,West,259,0.9,6.9,74,0.00,,,0.00,meteobridge,2014-01-06 18:46:00,
2014-01-06 13:51:00,-8.7,-14.8,29.44,WSW,243,0.0,14.1,74,0.00,,,0.00,meteobridge,2014-01-06 18:51:00,
2014-01-06 13:56:00,-8.7,-14.8,29.44,SE,126,2.0,4.0,74,0.00,,,0.00,meteobridge,2014-01-06 18:56:00,
2014-01-06 14:01:00,-8.5,-14.8,29.44,WSW,243,4.0,8.1,73,0.00,,,0.00,meteobridge,2014-01-06 19:01:00,
2014-01-06 14:06:00,-8.3,-14.4,29.44,WSW,252,2.9,6.0,74,0.00,,,0.00,meteobridge,2014-01-06 19:06:00,
2014-01-06 14:11:00,-8.3,-14.6,29.45,SW,229,6.9,10.1,73,0.00,,,0.00,meteobridge,2014-01-06 19:11:00,
2014-01-06 14:16:00,-8.3,-14.6,29.45,WSW,242,2.0,8.1,73,0.00,,,0.00,meteobridge,2014-01-06 19:16:00,
2014-01-06 14:21:00,-8.7,-15.3,29.45,SSW,197,4.9,6.9,72,0.00,,,0.00,meteobridge,2014-01-06 19:21:00,
2014-01-06 14:26:00,-8.9,-15.2,29.45,SW,221,0.0,2.9,73,0.00,,,0.00,meteobridge,2014-01-06 19:26:00,
2014-01-06 14:31:00,-9.0,-15.3,29.45,West,273,2.0,6.0,73,0.00,,,0.00,meteobridge,2014-01-06 19:31:00,
2014-01-06 14:36:00,-9.2,-15.2,29.45,WSW,253,2.9,10.1,74,0.00,,,0.00,meteobridge,2014-01-06 19:36:00,
2014-01-06 14:41:00,-9.2,-14.8,29.45,WNW,297,2.9,4.9,76,0.00,,,0.00,meteobridge,2014-01-06 19:41:00,
2014-01-06 14:46:00,-8.9,-14.4,29.45,SW,224,2.0,10.1,76,0.00,,,0.00,meteobridge,2014-01-06 19:46:00,
2014-01-06 14:52:00,-8.7,-15.0,29.46,WSW,256,0.0,4.9,73,0.00,,,0.00,meteobridge,2014-01-06 19:52:00,
2014-01-06 14:57:00,-9.0,-15.5,29.47,WNW,288,0.9,2.9,72,0.00,,,0.00,meteobridge,2014-01-06 19:57:00,
2014-01-06 15:02:00,-9.6,-15.5,29.46,WSW,253,0.9,6.0,74,0.00,,,0.00,meteobridge,2014-01-06 20:02:00,
2014-01-06 15:07:00,-9.8,-16.1,29.47,SSW,195,4.0,4.9,73,0.00,,,0.00,meteobridge,2014-01-06 20:07:00,
2014-01-06 15:12:00,-9.8,-16.2,29.47,West,259,4.0,11.0,72,0.00,,,0.00,meteobridge,2014-01-06 20:12:00,
2014-01-06 15:17:00,-9.6,-16.1,29.47,West,274,0.0,4.9,72,0.00,,,0.00,meteobridge,2014-01-06 20:17:00,
2014-01-06 15:22:00,-9.0,-15.3,29.47,SSW,200,4.0,4.0,73,0.00,,,0.00,meteobridge,2014-01-06 20:22:00,
2014-01-06 15:28:00,-8.3,-15.2,29.47,West,260,2.0,4.0,71,0.00,,,0.00,meteobridge,2014-01-06 20:28:00,
2014-01-06 15:33:00,-8.1,-14.8,29.47,West,272,0.9,2.9,72,0.00,,,0.00,meteobridge,2014-01-06 20:33:00,
2014-01-06 15:38:00,-8.3,-15.5,29.48,SW,222,2.0,6.0,70,0.00,,,0.00,meteobridge,2014-01-06 20:38:00,
2014-01-06 15:43:00,-8.9,-16.1,29.48,WSW,249,0.0,4.9,70,0.00,,,0.00,meteobridge,2014-01-06 20:43:00,
2014-01-06 15:48:00,-9.0,-15.5,29.48,SW,226,2.9,4.0,72,0.00,,,0.00,meteobridge,2014-01-06 20:48:00,
2014-01-06 15:53:00,-9.2,-15.2,29.48,WSW,253,2.9,8.1,74,0.00,,,0.00,meteobridge,2014-01-06 20:53:00,
2014-01-06 15:58:00,-9.4,-15.2,29.48,WSW,240,0.9,4.0,75,0.00,,,0.00,meteobridge,2014-01-06 20:58:00,
2014-01-06 16:03:00,-9.4,-15.0,29.48,ESE,123,0.0,4.0,76,0.00,,,0.00,meteobridge,2014-01-06 21:03:00,
2014-01-06 16:08:00,-9.2,-15.0,29.48,WSW,252,0.9,8.1,75,0.00,,,0.00,meteobridge,2014-01-06 21:08:00,
2014-01-06 16:13:00,-9.2,-15.5,29.49,South,181,0.0,8.1,73,0.00,,,0.00,meteobridge,2014-01-06 21:13:00,
2014-01-06 16:18:00,-9.6,-16.4,29.49,SSW,211,0.9,6.9,71,0.00,,,0.00,meteobridge,2014-01-06 21:18:00,
2014-01-06 16:23:00,-9.6,-15.9,29.49,WSW,243,0.0,6.9,73,0.00,,,0.00,meteobridge,2014-01-06 21:23:00,
2014-01-06 16:28:00,-9.4,-15.7,29.49,West,265,6.0,6.0,73,0.00,,,0.00,meteobridge,2014-01-06 21:28:00,
2014-01-06 16:33:00,-9.4,-15.9,29.49,West,266,0.0,2.0,72,0.00,,,0.00,meteobridge,2014-01-06 21:33:00,
2014-01-06 16:38:00,-9.6,-16.6,29.49,WSW,239,2.9,6.0,70,0.00,,,0.00,meteobridge,2014-01-06 21:38:00,
2014-01-06 16:43:00,-9.8,-16.6,29.49,West,270,0.9,4.9,71,0.00,,,0.00,meteobridge,2014-01-06 21:43:00,
2014-01-06 16:48:00,-9.8,-16.2,29.50,West,259,4.9,6.9,72,0.00,,,0.00,meteobridge,2014-01-06 21:48:00,
2014-01-06 16:53:00,-9.8,-16.2,29.50,SW,221,4.9,4.9,72,0.00,,,0.00,meteobridge,2014-01-06 21:53:00,
2014-01-06 16:58:00,-9.9,-16.2,29.50,SSW,210,0.9,4.9,73,0.00,,,0.00,meteobridge,2014-01-06 21:58:00,
2014-01-06 17:03:00,-10.1,-16.1,29.51,SW,228,0.0,4.9,74,0.00,,,0.00,meteobridge,2014-01-06 22:03:00,
2014-01-06 17:08:00,-10.1,-16.1,29.51,SW,236,2.9,2.9,74,0.00,,,0.00,meteobridge,2014-01-06 22:08:00,
2014-01-06 17:13:00,-10.3,-16.2,29.51,SSW,204,2.0,4.9,74,0.00,,,0.00,meteobridge,2014-01-06 22:13:00,
2014-01-06 17:18:00,-10.5,-16.4,29.51,WSW,253,0.0,6.0,74,0.00,,,0.00,meteobridge,2014-01-06 22:18:00,
2014-01-06 17:23:00,-10.8,-16.6,29.51,West,271,0.0,0.9,75,0.00,,,0.00,meteobridge,2014-01-06 22:23:00,
2014-01-06 17:28:00,-10.8,-16.6,29.51,WSW,255,6.0,6.0,75,0.00,,,0.00,meteobridge,2014-01-06 22:28:00,
2014-01-06 17:33:00,-10.8,-16.6,29.51,WSW,243,0.9,2.9,75,0.00,,,0.00,meteobridge,2014-01-06 22:33:00,
2014-01-06 17:38:00,-11.0,-16.8,29.51,WSW,257,0.0,4.0,75,0.00,,,0.00,meteobridge,2014-01-06 22:38:00,
2014-01-06 17:43:00,-11.0,-16.8,29.52,SW,235,0.9,2.0,75,0.00,,,0.00,meteobridge,2014-01-06 22:43:00,
2014-01-06 17:48:00,-11.2,-16.6,29.51,WSW,253,0.9,4.0,76,0.00,,,0.00,meteobridge,2014-01-06 22:48:00,
2014-01-06 17:53:00,-11.2,-16.6,29.52,WNW,285,0.0,0.9,76,0.00,,,0.00,meteobridge,2014-01-06 22:53:00,
2014-01-06 17:58:00,-11.4,-16.8,29.52,SW,236,2.9,2.9,76,0.00,,,0.00,meteobridge,2014-01-06 22:58:00,
2014-01-06 18:03:00,-11.4,-16.8,29.52,WSW,256,0.0,2.9,76,0.00,,,0.00,meteobridge,2014-01-06 23:03:00,
2014-01-06 18:08:00,-11.6,-17.0,29.52,SW,232,0.9,4.9,76,0.00,,,0.00,meteobridge,2014-01-06 23:08:00,
2014-01-06 18:13:00,-11.6,-16.8,29.52,WSW,253,0.0,4.0,77,0.00,,,0.00,meteobridge,2014-01-06 23:13:00,
2014-01-06 18:18:00,-11.6,-16.8,29.52,WSW,240,0.9,2.0,77,0.00,,,0.00,meteobridge,2014-01-06 23:18:00,
2014-01-06 18:23:00,-11.6,-16.8,29.53,SSW,208,2.9,4.0,77,0.00,,,0.00,meteobridge,2014-01-06 23:23:00,
2014-01-06 18:29:00,-11.6,-16.8,29.53,WSW,243,0.0,2.0,77,0.00,,,0.00,meteobridge,2014-01-06 23:29:00,
2014-01-06 18:34:00,-11.6,-16.8,29.53,SSW,212,2.9,2.9,77,0.00,,,0.00,meteobridge,2014-01-06 23:34:00,
2014-01-06 18:39:00,-11.6,-16.8,29.53,SSW,199,0.9,2.0,77,0.00,,,0.00,meteobridge,2014-01-06 23:39:00,
2014-01-06 18:44:00,-11.6,-16.8,29.53,West,264,0.9,6.9,77,0.00,,,0.00,meteobridge,2014-01-06 23:44:00,
2014-01-06 18:49:00,-11.6,-16.8,29.53,SSW,208,0.9,2.9,77,0.00,,,0.00,meteobridge,2014-01-06 23:49:00,
2014-01-06 18:54:00,-11.6,-16.8,29.53,SW,228,0.0,2.9,77,0.00,,,0.00,meteobridge,2014-01-06 23:54:00,
2014-01-06 18:59:00,-11.6,-16.8,29.53,SW,234,2.0,4.0,77,0.00,,,0.00,meteobridge,2014-01-06 23:59:00,
2014-01-06 19:04:00,-11.6,-16.8,29.53,SSW,205,0.9,6.0,77,0.00,,,0.00,meteobridge,2014-01-07 00:04:00,
2014-01-06 19:09:00,-11.7,-17.0,29.53,SW,215,0.0,4.0,77,0.00,,,0.00,meteobridge,2014-01-07 00:09:00,
2014-01-06 19:14:00,-11.7,-16.6,29.54,SSW,205,2.0,4.0,78,0.00,,,0.00,meteobridge,2014-01-07 00:14:00,
2014-01-06 19:19:00,-11.9,-16.8,29.54,SW,214,0.9,2.0,78,0.00,,,0.00,meteobridge,2014-01-07 00:19:00,
2014-01-06 19:24:00,-11.9,-16.8,29.54,SSW,211,2.0,4.0,78,0.00,,,0.00,meteobridge,2014-01-07 00:24:00,
2014-01-06 19:29:00,-11.9,-16.6,29.54,WSW,240,0.0,4.0,79,0.00,,,0.00,meteobridge,2014-01-07 00:29:00,
2014-01-06 19:34:00,-11.9,-16.6,29.54,SSW,205,0.0,4.9,79,0.00,,,0.00,meteobridge,2014-01-07 00:34:00,
2014-01-06 19:39:00,-11.9,-16.6,29.54,SSW,207,0.9,2.0,79,0.00,,,0.00,meteobridge,2014-01-07 00:39:00,
2014-01-06 19:44:00,-11.9,-16.6,29.54,WSW,243,0.9,0.9,79,0.00,,,0.00,meteobridge,2014-01-07 00:44:00,
2014-01-06 19:49:00,-12.1,-16.8,29.54,SSW,207,2.0,2.0,79,0.00,,,0.00,meteobridge,2014-01-07 00:49:00,
2014-01-06 19:54:00,-11.9,-16.6,29.54,SW,225,0.0,2.0,79,0.00,,,0.00,meteobridge,2014-01-07 00:54:00,
2014-01-06 19:59:00,-12.1,-16.8,29.54,WSW,240,0.0,2.0,79,0.00,,,0.00,meteobridge,2014-01-07 00:59:00,
2014-01-06 20:05:00,-12.1,-16.6,29.54,SW,224,0.0,2.9,80,0.00,,,0.00,meteobridge,2014-01-07 01:05:00,
2014-01-06 20:10:00,-12.1,-16.6,29.54,WSW,241,2.9,2.9,80,0.00,,,0.00,meteobridge,2014-01-07 01:10:00,
2014-01-06 20:15:00,-12.1,-16.6,29.54,SW,215,2.0,2.0,80,0.00,,,0.00,meteobridge,2014-01-07 01:15:00,
2014-01-06 20:20:00,-12.1,-16.6,29.54,WSW,238,2.9,4.0,80,0.00,,,0.00,meteobridge,2014-01-07 01:20:00,
2014-01-06 20:25:00,-11.9,-16.4,29.54,SSW,203,0.0,0.9,80,0.00,,,0.00,meteobridge,2014-01-07 01:25:00,
2014-01-06 20:30:00,-11.9,-16.4,29.54,WSW,240,2.9,2.9,80,0.00,,,0.00,meteobridge,2014-01-07 01:30:00,
2014-01-06 20:35:00,-11.9,-16.4,29.54,SW,224,0.0,2.0,80,0.00,,,0.00,meteobridge,2014-01-07 01:35:00,
2014-01-06 20:40:00,-11.9,-16.4,29.54,SW,231,0.0,4.0,80,0.00,,,0.00,meteobridge,2014-01-07 01:40:00,
2014-01-06 20:45:00,-12.1,-16.6,29.54,SW,230,0.9,2.0,80,0.00,,,0.00,meteobridge,2014-01-07 01:45:00,
2014-01-06 20:50:00,-12.1,-16.6,29.54,SW,217,0.9,2.0,80,0.00,,,0.00,meteobridge,2014-01-07 01:50:00,
2014-01-06 20:56:00,-11.9,-16.4,29.54,SW,224,0.0,4.0,80,0.00,,,0.00,meteobridge,2014-01-07 01:56:00,
2014-01-06 21:01:00,-11.9,-16.4,29.54,SSW,201,2.9,4.0,80,0.00,,,0.00,meteobridge,2014-01-07 02:01:00,
2014-01-06 21:06:00,-11.9,-16.4,29.54,SW,225,0.0,0.9,80,0.00,,,0.00,meteobridge,2014-01-07 02:06:00,
2014-01-06 21:11:00,-11.9,-16.4,29.54,SW,219,2.0,2.0,80,0.00,,,0.00,meteobridge,2014-01-07 02:11:00,
2014-01-06 21:16:00,-11.9,-16.4,29.55,SW,231,2.0,4.0,80,0.00,,,0.00,meteobridge,2014-01-07 02:16:00,
2014-01-06 21:21:00,-11.9,-16.4,29.55,SW,233,0.9,2.9,80,0.00,,,0.00,meteobridge,2014-01-07 02:21:00,
2014-01-06 21:26:00,-11.9,-16.4,29.55,SW,218,2.9,2.9,80,0.00,,,0.00,meteobridge,2014-01-07 02:26:00,
2014-01-06 21:31:00,-11.9,-16.4,29.55,SW,221,0.0,4.0,80,0.00,,,0.00,meteobridge,2014-01-07 02:31:00,
2014-01-06 21:36:00,-11.7,-16.2,29.55,SSW,200,0.0,6.0,80,0.00,,,0.00,meteobridge,2014-01-07 02:36:00,
2014-01-06 21:41:00,-11.7,-16.2,29.55,SW,233,0.9,4.0,80,0.00,,,0.00,meteobridge,2014-01-07 02:41:00,
2014-01-06 21:46:00,-11.7,-16.2,29.55,SW,219,0.9,4.9,80,0.00,,,0.00,meteobridge,2014-01-07 02:46:00,
2014-01-06 21:51:00,-11.6,-16.1,29.55,SW,218,0.9,2.0,80,0.00,,,0.00,meteobridge,2014-01-07 02:51:00,
2014-01-06 21:56:00,-11.7,-16.2,29.55,SW,228,4.0,4.0,80,0.00,,,0.00,meteobridge,2014-01-07 02:56:00,
2014-01-06 22:01:00,-11.6,-16.1,29.55,SSW,204,2.9,4.0,80,0.00,,,0.00,meteobridge,2014-01-07 03:01:00,
2014-01-06 22:07:00,-11.6,-16.1,29.56,WSW,257,0.0,4.0,80,0.00,,,0.00,meteobridge,2014-01-07 03:07:00,
2014-01-06 22:12:00,-11.6,-16.1,29.56,SSW,193,0.9,2.9,80,0.00,,,0.00,meteobridge,2014-01-07 03:12:00,
2014-01-06 22:17:00,-11.6,-16.1,29.56,SW,219,0.0,0.9,80,0.00,,,0.00,meteobridge,2014-01-07 03:17:00,
2014-01-06 22:22:00,-11.6,-16.1,29.56,South,188,0.0,2.0,80,0.00,,,0.00,meteobridge,2014-01-07 03:22:00,
2014-01-06 22:27:00,-11.4,-16.1,29.56,SW,221,0.0,2.9,79,0.00,,,0.00,meteobridge,2014-01-07 03:27:00,
2014-01-06 22:32:00,-11.6,-16.2,29.56,SW,220,2.9,2.9,79,0.00,,,0.00,meteobridge,2014-01-07 03:32:00,
2014-01-06 22:37:00,-11.4,-16.1,29.56,SW,224,2.0,4.0,79,0.00,,,0.00,meteobridge,2014-01-07 03:37:00,
2014-01-06 22:42:00,-11.4,-16.1,29.55,SSE,159,0.9,4.0,79,0.00,,,0.00,meteobridge,2014-01-07 03:42:00,
2014-01-06 22:47:00,-11.4,-16.1,29.55,SW,220,0.0,2.9,79,0.00,,,0.00,meteobridge,2014-01-07 03:47:00,
2014-01-06 22:52:00,-11.4,-16.1,29.55,SSW,210,2.9,2.9,79,0.00,,,0.00,meteobridge,2014-01-07 03:52:00,
2014-01-06 22:57:00,-11.4,-16.1,29.55,SW,215,0.9,2.0,79,0.00,,,0.00,meteobridge,2014-01-07 03:57:00,
2014-01-06 23:02:00,-11.4,-16.1,29.55,SW,220,0.0,2.0,79,0.00,,,0.00,meteobridge,2014-01-07 04:02:00,
2014-01-06 23:08:00,-11.4,-16.1,29.55,West,280,0.0,2.9,79,0.00,,,0.00,meteobridge,2014-01-07 04:08:00,
2014-01-06 23:13:00,-11.4,-16.1,29.55,SW,233,2.9,6.0,79,0.00,,,0.00,meteobridge,2014-01-07 04:13:00,
2014-01-06 23:18:00,-11.4,-16.1,29.55,SSW,208,2.0,4.0,79,0.00,,,0.00,meteobridge,2014-01-07 04:18:00,
2014-01-06 23:23:00,-11.4,-16.1,29.55,WSW,243,0.0,4.0,79,0.00,,,0.00,meteobridge,2014-01-07 04:23:00,
2014-01-06 23:28:00,-11.4,-16.1,29.55,West,274,0.0,0.9,79,0.00,,,0.00,meteobridge,2014-01-07 04:28:00,
2014-01-06 23:33:00,-11.2,-15.9,29.56,SW,229,2.0,4.9,79,0.00,,,0.00,meteobridge,2014-01-07 04:33:00,
2014-01-06 23:38:00,-11.2,-15.9,29.55,SW,232,0.0,0.9,79,0.00,,,0.00,meteobridge,2014-01-07 04:38:00,
2014-01-06 23:43:00,-11.2,-15.9,29.55,SW,236,0.0,2.0,79,0.00,,,0.00,meteobridge,2014-01-07 04:43:00,
2014-01-06 23:48:00,-11.2,-15.9,29.55,SW,225,0.0,2.9,79,0.00,,,0.00,meteobridge,2014-01-07 04:48:00,
2014-01-06 23:53:00,-11.2,-15.9,29.55,SSW,212,2.9,2.9,79,0.00,,,0.00,meteobridge,2014-01-07 04:53:00,
2014-01-06 23:58:00,-11.2,-15.9,29.55,SW,233,2.9,2.9,79,0.00,,,0.00,meteobridge,2014-01-07 04:58:00,